Вернуться в каталог

SL-8 R/B

АктивенPO
NORAD 28381·ROCKET BODY·🇷🇺 Russia

Запущен Jul 22, 2004 с Plesetsk Cosmodrome

Loading…

Ближайшие Пролёты (ближайшие 24 часа)

TLE

СвежийSource: Space-Track

Эпоха: Sep 14, 2026, 16:08 UTC

1 28381U 04028B   26257.67222881  .00000074  00000-0  58242-4 0  9990
2 28381  82.9619 344.7553 0030361 270.7293 260.7737 13.78651466114097

Отслеживайте SL-8 R/B в реальном времени с AllMySat

Download on the App Store